User: anonymous   Login
Location: Unspecified
(0.0000°N, 0.0000°E)
Time: 20:25:12
(UTC+00:00)
Language:

NNS O-31 - Orbit

View from above orbital plane
View from above orbital plane
View from above satellite
View from above satellite

Ground track
Ground track

The orbit data is extracted from the following two-line orbital elements,

1 19420U 88074B   17207.12574123 -.00000001 +00000-0 -16679-4 0  9991
2 19420 089.9828 018.9191 0093687 332.4414 163.6830 13.42179728415781
Epoch (UTC): 26 July 2017 03:01:04
Eccentricity: 0.0093687
inclination: 89.9828°
perigee height: 1031 km
apogee height: 1171 km
right ascension of ascending node: 18.9191°
argument of perigee: 332.4414°
revolutions per day: 13.42179728
mean anomaly at epoch: 163.6830°
orbit number at epoch: 41578

The dashed part of the orbit path shows where the satellite is in the earth's shadow,  

DLR